KQ4LLM Weather Reports


time (UTC)temp
C
wind
direction
speed
KPH
gust
KPH
rain 1hr
cm
rain 24hr
cm
rain mn
cm
humidity
%
barometer
mb
20260506015101 21 130 0.0 0.0 0.00 0.00 0.00 54
20260506014559 21 130 0.0 0.0 0.00 0.00 0.00 53
20260506014054 21 130 0.0 0.0 0.00 0.00 0.00 53
20260506013553 21 130 0.0 0.0 0.00 0.00 0.00 53
20260506013049 21 129 0.0 0.0 0.00 0.00 0.00 53
20260506012545 21 138 0.0 0.0 0.00 0.00 0.00 53
20260506012042 21 138 0.0 0.0 0.00 0.00 0.00 53
20260506011541 21 138 0.0 0.0 0.00 0.00 0.00 53
20260506011037 21 139 0.0 0.0 0.00 0.00 0.00 52
20260506010536 21 139 0.0 1.6 0.00 0.00 0.00 53
20260506010032 21 133 0.0 0.0 0.00 0.00 0.00 51
20260506005529 21 133 0.0 0.0 0.00 0.00 0.00 52
20260506005025 21 133 0.0 0.0 0.00 0.00 0.00 53
20260506004523 21 133 0.0 0.0 0.00 0.00 0.00 50
20260506004019 22 133 0.0 0.0 0.00 0.00 0.00 51
20260506003516 22 133 0.0 0.0 0.00 0.00 0.00 48
20260506003012 22 131 0.0 0.0 0.00 0.00 0.00 48
20260506002508 22 139 0.0 0.0 0.00 0.00 0.00 48
20260506002003 22 139 0.0 0.0 0.00 0.00 0.00 48
20260506001500 22 139 0.0 0.0 0.00 0.00 0.00 48
20260506000958 22 138 0.0 0.0 0.00 0.00 0.00 48
20260506000455 22 139 0.0 0.0 0.00 0.00 0.00 47
20260505235952 22 139 0.0 0.0 0.00 0.00 0.00 46
20260505235450 22 130 0.0 0.0 0.00 0.00 0.00 46
20260505234947 23 130 0.0 0.0 0.00 0.00 0.00 46
20260505234444 23 132 0.0 0.0 0.00 0.00 0.00 46
20260505233940 23 139 0.0 0.0 0.00 0.00 0.00 46
20260505233438 23 133 0.0 0.0 0.00 0.00 0.00 44
20260505232936 23 133 0.0 0.0 0.00 0.00 0.00 44
20260505232434 23 141 1.6 1.6 0.00 0.00 0.00 44
20260505231930 23 129 0.0 0.0 0.00 0.00 0.00 44
20260505231428 23 132 0.0 0.0 0.00 0.00 0.00 45
20260505230926 24 111 1.6 3.2 0.00 0.00 0.00 42
20260505230423 24 132 0.0 0.0 0.00 0.00 0.00 44
20260505225919 24 140 1.6 3.2 0.00 0.00 0.00 42
20260505225417 24 140 0.0 1.6 0.00 0.00 0.00 43
20260505224912 24 140 0.0 3.2 0.00 0.00 0.00 44
20260505224410 24 132 0.0 1.6 0.00 0.00 0.00 45
20260505223906 24 129 0.0 1.6 0.00 0.00 0.00 43
20260505223403 25 119 0.0 3.2 0.00 0.00 0.00 41
20260505222859 24 141 3.2 4.8 0.00 0.00 0.00 43
20260505222356 25 135 0.0 3.2 0.00 0.00 0.00 41
20260505221852 24 129 3.2 3.2 0.00 0.00 0.00 41
20260505221349 24 128 3.2 4.8 0.00 0.00 0.00 43
20260505220846 24 139 0.0 3.2 0.00 0.00 0.00 43
20260505220343 24 136 1.6 3.2 0.00 0.00 0.00 42
20260505215841 25 143 1.6 3.2 0.00 0.00 0.00 41
20260505215339 25 157 1.6 4.8 0.00 0.00 0.00 41
20260505214837 25 168 3.2 4.8 0.00 0.00 0.00 40
20260505214334 25 140 0.0 3.2 0.00 0.00 0.00 42
20260505213831 25 159 1.6 4.8 0.00 0.00 0.00 40
20260505213329 24 137 0.0 1.6 0.00 0.00 0.00 42
20260505212824 24 140 0.0 1.6 0.00 0.00 0.00 44
20260505212322 24 141 1.6 4.8 0.00 0.00 0.00 43
20260505211818 24 150 1.6 3.2 0.00 0.00 0.00 40
20260505211316 25 192 3.2 4.8 0.00 0.00 0.00 39
20260505210812 25 145 3.2 4.8 0.00 0.00 0.00 42
20260505210309 25 150 1.6 3.2 0.00 0.00 0.00 40
20260505205806 25 144 1.6 3.2 0.00 0.00 0.00 42
20260505205305 25 155 1.6 3.2 0.00 0.00 0.00 40
20260505204801 25 123 0.0 1.6 0.00 0.00 0.00 40
20260505204259 25 141 0.0 1.6 0.00 0.00 0.00 40
20260505203755 25 131 0.0 3.2 0.00 0.00 0.00 43
20260505203252 25 165 3.2 3.2 0.00 0.00 0.00 40
20260505202749 25 129 1.6 3.2 0.00 0.00 0.00 39
20260505202244 25 141 0.0 4.8 0.00 0.00 0.00 42
20260505201741 25 138 1.6 3.2 0.00 0.00 0.00 41
20260505201239 26 160 1.6 3.2 0.00 0.00 0.00 39
20260505200737 26 142 0.0 3.2 0.00 0.00 0.00 41
20260505200234 26 137 0.0 0.0 0.00 0.00 0.00 40
20260505195729 26 156 3.2 3.2 0.00 0.00 0.00 39
20260505195227 25 142 1.6 3.2 0.00 0.00 0.00 41
20260505194724 25 136 1.6 4.8 0.00 0.00 0.00 39
20260505194220 26 134 0.0 3.2 0.00 0.00 0.00 39
20260505193716 26 205 3.2 4.8 0.00 0.00 0.00 38
20260505193214 26 152 3.2 4.8 0.00 0.00 0.00 38
20260505192712 26 132 0.0 1.6 0.00 0.00 0.00 37
20260505192209 26 145 1.6 3.2 0.00 0.00 0.00 38
20260505191708 25 154 1.6 3.2 0.00 0.00 0.00 38
20260505191206 25 178 1.6 3.2 0.00 0.00 0.00 38
20260505190702 26 137 1.6 3.2 0.00 0.00 0.00 39
20260505190201 26 163 3.2 3.2 0.00 0.00 0.00 38
20260505185658 25 141 0.0 3.2 0.00 0.00 0.00 41
20260505185155 25 144 1.6 4.8 0.00 0.00 0.00 37
20260505184651 25 133 3.2 4.8 0.00 0.00 0.00 39
20260505184148 25 127 1.6 4.8 0.00 0.00 0.00 38
20260505183645 25 135 0.0 3.2 0.00 0.00 0.00 41
20260505183143 25 129 3.2 3.2 0.00 0.00 0.00 40
20260505182638 25 149 1.6 3.2 0.00 0.00 0.00 37
20260505182136 25 149 1.6 3.2 0.00 0.00 0.00 39
20260505181632 25 142 1.6 3.2 0.00 0.00 0.00 36
20260505181130 25 156 3.2 4.8 0.00 0.00 0.00 39
20260505180626 25 161 1.6 3.2 0.00 0.00 0.00 40
20260505180123 25 133 1.6 4.8 0.00 0.00 0.00 39
20260505175619 25 107 1.6 3.2 0.00 0.00 0.00 40
20260505175116 25 184 4.8 4.8 0.00 0.00 0.00 41
20260505174612 25 184 3.2 4.8 0.00 0.00 0.00 38
20260505174108 25 137 1.6 9.7 0.00 0.00 0.00 40
20260505173605 25 125 3.2 4.8 0.00 0.00 0.00 39
20260505173102 25 155 1.6 3.2 0.00 0.00 0.00 40
20260505172600 24 195 3.2 4.8 0.00 0.00 0.00 37
20260505172056 24 199 3.2 4.8 0.00 0.00 0.00 38
20260505171551 25 213 4.8 6.4 0.00 0.00 0.00 39
20260505171048 24 134 0.0 3.2 0.00 0.00 0.00 40
20260505170545 24 147 1.6 3.2 0.00 0.00 0.00 41
20260505170041 23 108 3.2 4.8 0.00 0.00 0.00 42
20260505165536 24 89 3.2 4.8 0.00 0.00 0.00 41
20260505165032 23 148 3.2 4.8 0.00 0.00 0.00 42
20260505164528 23 142 3.2 4.8 0.00 0.00 0.00 40
20260505164026 23 182 1.6 3.2 0.00 0.00 0.00 40
20260505163525 23 125 4.8 4.8 0.00 0.00 0.00 45
20260505163021 23 164 1.6 3.2 0.00 0.00 0.00 50
20260505162515 22 137 0.0 1.6 0.00 0.00 0.00 47
20260505162012 22 107 1.6 1.6 0.00 0.00 0.00 49
20260505161508 22 141 1.6 3.2 0.00 0.00 0.00 51
20260505161006 22 136 0.0 3.2 0.00 0.00 0.00 48
20260505160503 22 124 1.6 3.2 0.00 0.00 0.00 49
20260505152940 21 141 1.6 3.2 0.00 0.00 0.00 53
20260505152437 21 142 1.6 3.2 0.00 0.00 0.00 54
20260505151938 21 141 1.6 3.2 0.00 0.00 0.00 54
20260505151433 21 129 0.0 3.2 0.00 0.00 0.00 56
20260505150931 21 148 1.6 4.8 0.00 0.00 0.00 54
20260505150428 21 134 1.6 1.6 0.00 0.00 0.00 57
20260505140358 18 136 1.6 1.6 0.00 0.00 0.00 67
20260505124811 15 150 3.2 3.2 0.00 0.00 0.00 79
20260505124308 15 144 0.0 0.0 0.00 0.00 0.00 80
20260505123804 15 137 0.0 3.2 0.00 0.00 0.00 80
20260505123301 15 128 0.0 3.2 0.00 0.00 0.00 81
20260505122757 14 147 0.0 0.0 0.00 0.00 0.00 81
20260505122255 14 137 0.0 0.0 0.00 0.00 0.00 81
20260505121751 13 141 0.0 0.0 0.00 0.00 0.00 81
20260505121248 13 140 0.0 0.0 0.00 0.00 0.00 82
20260505120744 13 134 0.0 0.0 0.00 0.00 0.00 83
20260505120240 13 132 0.0 0.0 0.00 0.00 0.00 84
20260505115739 12 131 0.0 0.0 0.00 0.00 0.00 86
20260505115237 12 131 0.0 0.0 0.00 0.00 0.00 86
20260505114734 12 131 0.0 0.0 0.00 0.00 0.00 86
20260505114230 12 131 0.0 0.0 0.00 0.00 0.00 86
20260505113727 12 131 0.0 0.0 0.00 0.00 0.00 86
20260505113223 12 131 0.0 0.0 0.00 0.00 0.00 86
20260505112720 12 131 0.0 0.0 0.00 0.00 0.00 85
20260505112218 12 131 0.0 0.0 0.00 0.00 0.00 84
20260505111717 12 129 0.0 1.6 0.00 0.00 0.00 85
20260505111214 12 128 1.6 1.6 0.00 0.00 0.00 85
20260505110709 12 128 1.6 1.6 0.00 0.00 0.00 87
20260505110207 11 128 0.0 1.6 0.00 0.00 0.00 89
20260505102143 11 128 0.0 0.0 0.00 0.00 0.00 90
20260505101641 11 128 0.0 0.0 0.00 0.00 0.00 89
20260505101137 11 128 0.0 0.0 0.00 0.00 0.00 89
20260505100633 11 127 0.0 0.0 0.00 0.00 0.00 89
20260505100130 11 128 0.0 0.0 0.00 0.00 0.00 89
20260505095626 11 129 0.0 0.0 0.00 0.00 0.00 89
20260505095124 11 129 0.0 0.0 0.00 0.00 0.00 89
20260505094620 11 128 0.0 0.0 0.00 0.00 0.00 88
20260505094116 11 128 0.0 0.0 0.00 0.00 0.00 88
20260505093612 11 128 0.0 0.0 0.00 0.00 0.00 87
20260505093110 11 128 0.0 0.0 0.00 0.00 0.00 87
20260505092607 11 128 0.0 0.0 0.00 0.00 0.00 86
20260505092106 11 128 0.0 0.0 0.00 0.00 0.00 85
20260505091602 11 128 0.0 0.0 0.00 0.00 0.00 85
20260505091100 11 128 0.0 0.0 0.00 0.00 0.00 85
20260505090558 11 129 0.0 0.0 0.00 0.00 0.00 85
20260505090055 11 120 0.0 0.0 0.00 0.00 0.00 85
20260505085553 11 120 0.0 0.0 0.00 0.00 0.00 85
20260505085051 11 120 0.0 0.0 0.00 0.00 0.00 85
20260505084549 11 120 0.0 0.0 0.00 0.00 0.00 85
20260505084047 11 120 0.0 0.0 0.00 0.00 0.00 84
20260505083544 11 120 0.0 0.0 0.00 0.00 0.00 84
20260505083040 11 120 0.0 0.0 0.00 0.00 0.00 83
20260505082536 11 120 0.0 0.0 0.00 0.00 0.00 83
20260505082033 11 119 0.0 0.0 0.00 0.00 0.00 82
20260505081529 11 120 0.0 0.0 0.00 0.00 0.00 82
20260505081027 11 119 0.0 0.0 0.00 0.00 0.00 82
20260505080523 11 119 0.0 0.0 0.00 0.00 0.00 82
20260505080020 11 119 0.0 0.0 0.00 0.00 0.00 82
20260505075516 11 119 0.0 0.0 0.00 0.00 0.00 82
20260505075013 11 119 0.0 0.0 0.00 0.00 0.00 81
20260505074510 11 119 0.0 0.0 0.00 0.00 0.00 81
20260505074007 11 120 0.0 0.0 0.00 0.00 0.00 78
20260505073504 11 119 0.0 0.0 0.00 0.00 0.00 78
20260505073002 11 119 0.0 0.0 0.00 0.00 0.00 79
20260505072458 11 119 0.0 0.0 0.00 0.00 0.00 78
20260505071954 11 119 0.0 0.0 0.00 0.00 0.00 78
20260505071450 11 119 0.0 0.0 0.00 0.00 0.00 77
20260505070948 11 119 0.0 0.0 0.00 0.00 0.00 77
20260505070445 12 119 0.0 0.0 0.00 0.00 0.00 78
20260505065940 12 119 0.0 0.0 0.00 0.00 0.00 78
20260505065437 12 119 0.0 0.0 0.00 0.00 0.00 75
20260505064933 12 119 0.0 0.0 0.00 0.00 0.00 75
20260505064431 12 119 0.0 0.0 0.00 0.00 0.00 73
20260505063929 12 119 0.0 0.0 0.00 0.00 0.00 75
20260505063425 12 119 0.0 0.0 0.00 0.00 0.00 74
20260505062922 12 119 0.0 0.0 0.00 0.00 0.00 73
20260505062419 12 119 0.0 0.0 0.00 0.00 0.00 72
20260505061915 12 119 0.0 1.6 0.00 0.00 0.00 74
20260505061414 12 137 0.0 0.0 0.00 0.00 0.00 73
20260505060911 12 137 0.0 0.0 0.00 0.00 0.00 73
20260505060408 12 137 0.0 1.6 0.00 0.00 0.00 72
20260505055904 12 127 0.0 0.0 0.00 0.00 0.00 72
20260505055400 12 127 0.0 0.0 0.00 0.00 0.00 74
20260505054857 13 127 0.0 0.0 0.00 0.00 0.00 74
20260505054354 13 127 0.0 0.0 0.00 0.00 0.00 73
20260505053853 13 127 0.0 0.0 0.00 0.00 0.00 72
20260505053350 13 127 0.0 0.0 0.00 0.00 0.00 71
20260505052846 13 127 0.0 0.0 0.00 0.00 0.00 71
20260505052343 13 127 0.0 0.0 0.00 0.00 0.00 72
20260505051840 13 127 0.0 0.0 0.00 0.00 0.00 74
20260505051337 13 127 0.0 0.0 0.00 0.00 0.00 73
20260505050835 13 127 0.0 0.0 0.00 0.00 0.00 73
20260505050334 13 127 0.0 0.0 0.00 0.00 0.00 71
20260505041758 14 127 0.0 0.0 0.00 0.00 0.00 68
20260505041255 15 127 0.0 0.0 0.00 0.00 0.00 69
20260505040753 15 127 0.0 0.0 0.00 0.00 0.00 66
20260505040250 15 127 0.0 0.0 0.00 0.00 0.00 65
20260505035747 15 127 0.0 0.0 0.00 0.00 0.00 63
20260505035243 15 127 0.0 0.0 0.00 0.00 0.00 65
20260505034740 15 127 0.0 0.0 0.00 0.00 0.00 62
20260505034237 15 127 0.0 0.0 0.00 0.00 0.00 64
20260505033733 15 127 0.0 0.0 0.00 0.00 0.00 61
20260505033231 16 127 0.0 0.0 0.00 0.00 0.00 61
20260505032728 16 127 0.0 0.0 0.00 0.00 0.00 60
20260505032224 16 127 0.0 0.0 0.00 0.00 0.00 60
20260505031721 16 127 0.0 0.0 0.00 0.00 0.00 59
20260505031218 16 127 0.0 0.0 0.00 0.00 0.00 59
20260505030715 16 127 0.0 0.0 0.00 0.00 0.00 58
20260505030206 16 127 0.0 0.0 0.00 0.00 0.00 58
20260505025701 16 127 0.0 0.0 0.00 0.00 0.00 58
20260505025200 16 127 0.0 0.0 0.00 0.00 0.00 59
20260505024658 16 127 0.0 0.0 0.00 0.00 0.00 58
20260505024154 16 127 0.0 0.0 0.00 0.00 0.00 57
20260505023652 16 127 0.0 0.0 0.00 0.00 0.00 57
20260505023149 16 127 0.0 0.0 0.00 0.00 0.00 57
20260505022646 16 127 0.0 0.0 0.00 0.00 0.00 57
20260505022143 16 127 0.0 0.0 0.00 0.00 0.00 57
20260505021640 16 127 0.0 0.0 0.00 0.00 0.00 57
20260505021137 16 127 0.0 0.0 0.00 0.00 0.00 59
20260505020632 16 127 0.0 0.0 0.00 0.00 0.00 58
20260505020128 17 127 0.0 0.0 0.00 0.00 0.00 62
20260505015625 17 127 0.0 0.0 0.00 0.00 0.00 56